Location: Seven Kings
(51.5667°N, 0.1000°E)
Time: 03:32:24
(UTC+00:00)

Cosmos 1656 - Pass Details

Date: 29 October 2020
Orbit: 796 x 851 km, 71.1° (Epoch: 24 November)

Event Time Altitude Azimuth Distance (km) Brightness Sun altitude
Rises 18:16:28 0° 206° (SSW) 3,344 7.2 -15.9°
Reaches altitude 10° 18:18:52 10° 205° (SSW) 2,424 6.4 -16.3°
Maximum altitude 18:24:26 85° 118° (ESE) 846 3.6 -17.1°
Drops below altitude 10° 18:30:08 10° 31° (NNE) 2,474 5.8 -18.0°
Enters shadow 18:30:42 - 31° (NNE) 2,689 6.0 -18.1°
